Flag for Switzerland Weather past 2 weeks in Vernier, Geneva, Switzerland

Now
72 °F

Broken clouds.


Feels Like: 76 °F
Forecast: 53 / 78 °F
Wind: 6 mph from East

Location: Geneva Cointrin Airport

Current Time: Sep 17, 2014 at 2:36:06 PM

Latest Report: Sep 17, 2014 at 1:50 PM


Visibility: N/A

Pressure: 29.89 "Hg

Humidity: 61%

Dew point: 57 °F

Location of VernierLocation

Historic Weather in Vernier — Graph

°F

Vernier temperature yesterday

Maximum temperature yesterday: 77 °F (at 4:20 PM)
Minimum temperature yesterday: 55 °F (at 6:20 AM)
Average temperature yesterday: 65 °F

Past Weeks' High & Low Weather Summary

 TemperatureHumidityPressure
High84 °F (Sep 8, 3:20 PM)100% (Sep 4, 5:20 AM)30.09 "Hg (Sep 4, 5:20 AM)
Low52 °F (Sep 4, 5:20 AM)40% (Sep 2, 4:20 PM)29.89 "Hg (Sep 6, 4:50 PM)
Average64 °F76%30.00 "Hg
* Reported Sep 2 1:20 PM — Sep 17 1:20 PM, Vernier, Weather by CustomWeather, © 2014

Note: Actual official high and low records may vary slightly from our data, if they occured in-between our weather recording intervals... More about our weather records

Advertising

Vernier weather history for previous 24 hours

 ConditionsComfort  
Time TempWeatherWind HumidityBarometerVisibility
1:20 PM
Sep 17
72 °FBroken clouds.6 mph61%29.89 "HgN/A
12:50 PM72 °FBroken clouds.6 mph61%29.89 "HgN/A
12:20 PM70 °FScattered clouds.7 mph69%29.92 "HgN/A
11:50 AM70 °FScattered clouds.7 mph64%29.92 "HgN/A
11:20 AM68 °FPartly sunny.2 mph73%29.92 "HgN/A
10:50 AM66 °FPartly sunny.5 mph78%29.92 "HgN/A
10:20 AM66 °FPartly sunny.1 mph78%29.92 "HgN/A
9:50 AM66 °FScattered clouds.1 mph78%29.92 "HgN/A
9:20 AM63 °FScattered clouds.1 mph88%29.92 "HgN/A
8:50 AM61 °FScattered clouds.2 mph94%29.92 "HgN/A
8:20 AM61 °FScattered clouds.No wind88%29.92 "HgN/A
7:50 AM59 °FPassing clouds.1 mph94%29.92 "HgN/A
7:20 AM57 °FPassing clouds.1 mph100%29.92 "HgN/A
6:50 AM57 °FPassing clouds.1 mph100%29.89 "HgN/A
6:20 AM57 °FPassing clouds.2 mph100%29.92 "HgN/A
5:50 AM57 °FPassing clouds.1 mph100%29.92 "HgN/A
5:20 AM57 °FPassing clouds.No wind94%29.92 "HgN/A
4:50 AM57 °FPassing clouds.1 mph94%29.92 "HgN/A
4:20 AM57 °FPassing clouds.No wind94%29.95 "HgN/A
3:50 AM57 °FClear.No wind94%29.95 "Hg10 mi
2:50 AM57 °FClear.No wind94%29.95 "Hg10 mi
2:20 AM57 °FClear.2 mph94%29.95 "Hg10 mi
1:50 AM57 °FClear.1 mph100%29.95 "Hg10 mi
1:20 AM57 °FClear.No wind100%29.92 "Hg10 mi
12:50 AM59 °FClear.2 mph94%29.92 "Hg10 mi
12:20 AM59 °FClear.1 mph94%29.95 "Hg10 mi
11:50 PM
Sep 16
61 °FClear.No wind88%29.95 "Hg10 mi
11:20 PM61 °FClear.1 mph88%29.95 "Hg10 mi
10:50 PM61 °FClear.3 mph88%29.95 "Hg10 mi
10:20 PM61 °FClear.3 mph88%29.95 "Hg10 mi
9:50 PM63 °FClear.No wind88%29.92 "Hg10 mi
9:20 PM63 °FClear.No wind88%29.92 "Hg10 mi
8:50 PM64 °FClear.1 mph78%29.92 "Hg10 mi
8:20 PM66 °FSunny.1 mph73%29.92 "Hg10 mi
7:50 PM68 °FPartly sunny.2 mph69%29.92 "HgN/A
7:20 PM72 °FPartly sunny.2 mph61%29.92 "HgN/A
6:50 PM73 °FScattered clouds.5 mph57%29.92 "HgN/A
6:20 PM73 °FScattered clouds.8 mph57%29.92 "HgN/A
5:50 PM75 °FScattered clouds.6 mph54%29.92 "HgN/A
5:20 PM77 °FScattered clouds.3 mph51%29.92 "HgN/A
4:50 PM77 °FScattered clouds.3 mph51%29.92 "HgN/A
4:20 PM77 °FScattered clouds.3 mph51%29.92 "HgN/A
3:50 PM75 °FScattered clouds.3 mph54%29.95 "HgN/A
3:20 PM75 °FScattered clouds.5 mph54%29.95 "HgN/A
2:50 PM75 °FScattered clouds.5 mph57%29.95 "HgN/A
2:20 PM73 °FPassing clouds.5 mph61%29.95 "HgN/A
Weather by CustomWeather, © 2014

See weather overviewHow to use our weather pages